STARLINK-34232, 65019

Orbit data source: Space-Track

STARLINK-34232, 65019 is a payload satellite owned by SpaceX/Seattle (US) in LEO that was launched on Wed, 30 Jul 2025 UTC via an FALCON 9 launch vehicle from the Air Force Eastern Test Range (AFETR). Payload-class satellites include a variety of spacecraft equipped with specific instruments for various scientific and technological missions. These include communications satellites like Starlink; space stations such as the ISS; scientific satellites like the Hubble; Earth observation satellites from companies like Planet Labs, Umbra, and HawkEye 360; GPS; miniature CubeSats for education and research; and military/defense satellites.

Loading next visibility...
Identifier
65019, 2025-161E
Orbit
LEO
Country
Flag of USUS
Related business
Manufacturer
SpaceX/Seattle
Mission
Operational spacecraft
Bus & Motor
STARLINK V2MO, Unknown motor
Mass
575 kg wet, ~530 kg dry
Launch date (UTC)
2025-07-30 (1 month ago)
Launch vehicle
FALCON 9
Launch site
Air Force Eastern Test Range (AFETR)
Object type
Payload
Rocket body
Debris
Shape & HBR
Unknown
Radar Cross Section
Large (>1 m²)

Expand to show TLE details & history
Last TLE update: 19 hours ago

TLE from 19 hours ago
0 STARLINK-34232
1 65019U 25161E   25241.25002315  .00022188  00000-0  56367-3 0  9999
2 65019  53.1592 110.5036 0000734 103.4863 204.3798 15.39586442  6032
Epoch: 2025-08-29T06:00Z
TLE epoch observation values (Epoch: 2025-08-29T06:00:02Z)
Latitude
-39.39081°
Longitude
5.07439°
Altitude
460.704 km
Speed
7.636 km/s
True Right ascension
04h 51m 08s
True Declination
-39° 12' 54"
Sunlit
Object was in daylight at epoch
Visualization orbit readout
Latitude
Unknown
Longitude
Unknown
Altitude
Unknown
Speed
Unknown
Apparent Right ascension
Unknown
Apparent Declination
Unknown
Sunlit
N/A
Visualization observer readout
Local Sidereal Time
16:55:19
Azimuth
Unknown
Elevation
Unknown
Doppler factor
Unknown
Orbital elements
Apogee altitude
448.09 km
Perigee altitude
447.088 km
Semi-major axis
6,825.726 km
Eccentricity
0.00007
Inclination
53.1592°
RAAN
110.5036°
Arg. of periapsis
103.4863°
True anomaly
204.37633°
Mean anomaly
204.3798°
Eccentric anomaly
204.37806°
Mean motion
3.84875 °/min
Orbital period
93.54 mins
BSTAR
0.00056367
Loading maneuver chart data...
Computing Atmospheric mass density...
Loading historical data...
Loading historical data...
Loading historical data...
Loading historical data...
Loading historical data...
Loading historical data...
Loading historical data...

Documentation

Showing up to 5 results
|